TimeEST,TemperatureF,Dew PointF,Humidity,Sea Level PressureIn,VisibilityMPH,Wind Direction,Wind SpeedMPH,Gust SpeedMPH,PrecipitationIn,Events,Conditions,WindDirDegrees,DateUTC
12:16 AM,28.4,26.6,93,29.93,2.0,Calm,Calm,-,0.00,Rain,Light Freezing Rain,0,2013-02-06 05:16:00
12:24 AM,28.4,26.6,93,29.93,2.0,Calm,Calm,-,0.00,Rain,Light Freezing Rain,0,2013-02-06 05:24:00
12:43 AM,28.4,26.6,93,29.93,2.5,Calm,Calm,-,0.00,,Overcast,0,2013-02-06 05:43:00
12:53 AM,28.9,27.0,92,29.95,2.5,Calm,Calm,-,0.00,,Overcast,0,2013-02-06 05:53:00
1:53 AM,28.9,27.0,92,29.95,2.5,Calm,Calm,-,N/A,,Overcast,0,2013-02-06 06:53:00
2:10 AM,28.4,26.6,93,29.93,2.5,Calm,Calm,-,N/A,,Overcast,0,2013-02-06 07:10:00
2:23 AM,28.4,26.6,93,29.93,2.5,Calm,Calm,-,N/A,,Overcast,0,2013-02-06 07:23:00
2:25 AM,28.4,26.6,93,29.93,3.0,Calm,Calm,-,N/A,,Overcast,0,2013-02-06 07:25:00
2:53 AM,28.9,27.0,92,29.95,3.0,Calm,Calm,-,N/A,,Overcast,0,2013-02-06 07:53:00
3:33 AM,28.4,26.6,93,29.94,2.5,Calm,Calm,-,N/A,,Overcast,0,2013-02-06 08:33:00
3:41 AM,28.4,26.6,93,29.94,2.5,Calm,Calm,-,N/A,,Mostly Cloudy,0,2013-02-06 08:41:00
3:53 AM,28.0,27.0,96,29.97,2.5,Calm,Calm,-,N/A,,Overcast,0,2013-02-06 08:53:00
4:01 AM,28.4,26.6,93,29.94,2.5,Calm,Calm,-,N/A,,Overcast,0,2013-02-06 09:01:00
4:21 AM,28.4,26.6,93,29.95,2.5,Calm,Calm,-,N/A,,Scattered Clouds,0,2013-02-06 09:21:00
4:44 AM,24.8,24.8,100,29.96,1.5,Calm,Calm,-,N/A,,Scattered Clouds,0,2013-02-06 09:44:00
4:53 AM,26.1,25.0,96,29.98,1.5,Calm,Calm,-,N/A,,Partly Cloudy,0,2013-02-06 09:53:00
5:19 AM,24.8,24.8,100,29.97,2.0,Calm,Calm,-,N/A,,Partly Cloudy,0,2013-02-06 10:19:00
5:31 AM,24.8,23.0,93,29.98,1.8,Calm,Calm,-,N/A,,Partly Cloudy,0,2013-02-06 10:31:00
5:53 AM,25.0,24.1,96,30.01,2.0,Calm,Calm,-,N/A,,Mostly Cloudy,0,2013-02-06 10:53:00
6:53 AM,25.0,24.1,96,30.04,2.5,Calm,Calm,-,N/A,,Partly Cloudy,0,2013-02-06 11:53:00
7:19 AM,24.8,23.0,93,30.02,1.8,Calm,Calm,-,N/A,,Clear,0,2013-02-06 12:19:00
7:53 AM,25.0,24.1,96,30.09,1.8,Calm,Calm,-,N/A,,Clear,0,2013-02-06 12:53:00
8:12 AM,26.6,24.8,93,30.07,2.0,Calm,Calm,-,N/A,,Clear,0,2013-02-06 13:12:00
8:35 AM,30.2,26.6,86,30.08,3.0,Calm,Calm,-,N/A,,Clear,0,2013-02-06 13:35:00
8:53 AM,30.9,25.0,79,30.09,4.0,West,4.6,-,N/A,,Haze,280,2013-02-06 13:53:00
9:53 AM,34.0,23.0,64,30.13,10.0,WNW,9.2,-,N/A,,Mostly Cloudy,290,2013-02-06 14:53:00
10:53 AM,35.1,21.9,59,30.13,10.0,NW,8.1,-,N/A,,Overcast,310,2013-02-06 15:53:00
11:53 AM,36.0,19.9,52,30.13,10.0,WNW,12.7,-,N/A,,Overcast,290,2013-02-06 16:53:00
12:53 PM,36.0,18.0,48,30.13,10.0,WNW,10.4,23.0,N/A,,Overcast,300,2013-02-06 17:53:00
1:53 PM,37.0,16.0,42,30.14,10.0,NW,13.8,23.0,N/A,,Overcast,310,2013-02-06 18:53:00
2:53 PM,37.9,17.1,43,30.15,10.0,NW,13.8,19.6,N/A,,Mostly Cloudy,310,2013-02-06 19:53:00
3:53 PM,37.9,15.1,39,30.18,10.0,NW,12.7,24.2,N/A,,Partly Cloudy,310,2013-02-06 20:53:00
4:53 PM,37.0,12.0,36,30.21,10.0,NW,8.1,17.3,N/A,,Clear,320,2013-02-06 21:53:00
5:53 PM,35.1,10.9,37,30.25,10.0,NW,6.9,-,N/A,,Clear,320,2013-02-06 22:53:00
6:53 PM,33.1,12.0,42,30.30,10.0,Variable,4.6,-,N/A,,Clear,0,2013-02-06 23:53:00
7:53 PM,32.0,10.9,42,30.32,10.0,NNW,6.9,-,N/A,,Clear,330,2013-02-07 00:53:00
8:53 PM,30.9,9.0,40,30.35,10.0,North,4.6,-,N/A,,Clear,350,2013-02-07 01:53:00
9:53 PM,28.9,7.0,40,30.35,10.0,Calm,Calm,-,N/A,,Clear,0,2013-02-07 02:53:00
10:53 PM,28.0,1.0,31,30.38,10.0,Variable,3.5,-,N/A,,Clear,0,2013-02-07 03:53:00
11:53 PM,27.0,1.9,34,30.38,10.0,Calm,Calm,-,N/A,,Clear,0,2013-02-07 04:53:00